When you browse on this site, cookies collect data to enhance your experience and personalize the content and advertising you see.
Visit our Privacy Policy to learn more. By continuing to use the site, you agree to this use of cookies and data.
  • In Deutschland
  • Länderverzeichnis
  • Für 7 Tage
  • Wassertemperatur
  • Satellitenkarten
  • Wetterkarte
  • Widgets
  • user-avatar
    Anmelden

    Stündliche Wetter Longkou

    Heute, 13 Dezember, Donnerstag

    Zeit Temperatur Niederschläge Wind Luftdruck Luftfeuchtigkeit
    00:00 -7°C° 0 mm 7 m/S 773 mmHg 54%
    01:00 -7°C° 0 mm 7 m/S 773 mmHg 54%
    02:00 -6°C° 0 mm 7 m/S 773 mmHg 54%
    03:00 -6°C° 0 mm 7 m/S 773 mmHg 56%
    04:00 -4°C° 0 mm 7 m/S 773 mmHg 58%
    05:00 -4°C° 0 mm 7 m/S 773 mmHg 60%
    06:00 -4°C° 0 mm 7 m/S 774 mmHg 60%
    07:00 -4°C° 0 mm 6 m/S 774 mmHg 60%
    08:00 -4°C° 0 mm 6 m/S 775 mmHg 60%
    09:00 -3°C° 0 mm 6 m/S 775 mmHg 60%
    10:00 -2°C° 0 mm 7 m/S 775 mmHg 59%
    11:00 -1°C° 0 mm 7 m/S 776 mmHg 59%
    12:00 -1°C° 0 mm 7 m/S 776 mmHg 59%
    13:00 -2°C° 0 mm 7 m/S 776 mmHg 58%
    14:00 -2°C° 0 mm 7 m/S 776 mmHg 58%
    15:00 -3°C° 0 mm 6 m/S 776 mmHg 61%
    16:00 -4°C° 0 mm 5 m/S 776 mmHg 65%
    17:00 -5°C° 0 mm 5 m/S 777 mmHg 68%
    18:00 -4°C° 0 mm 4 m/S 777 mmHg 67%
    19:00 -4°C° 0 mm 4 m/S 777 mmHg 67%
    20:00 -4°C° 0 mm 4 m/S 778 mmHg 66%
    21:00 -4°C° 0 mm 3 m/S 778 mmHg 66%
    22:00 -4°C° 0 mm 3 m/S 778 mmHg 66%
    23:00 -4°C° 0 mm 3 m/S 778 mmHg 65%

    Morgen, 14 Dezember, Freitag

    Zeit Temperatur Niederschläge Wind Luftdruck Luftfeuchtigkeit
    00:00 -4°C° 0 mm 3 m/S 778 mmHg 65%
    01:00 -3°C° 0 mm 2 m/S 778 mmHg 64%
    02:00 -3°C° 0 mm 2 m/S 779 mmHg 64%
    03:00 -3°C° 0 mm 2 m/S 778 mmHg 64%
    04:00 -3°C° 0 mm 2 m/S 778 mmHg 64%
    05:00 -3°C° 0 mm 2 m/S 778 mmHg 65%
    06:00 -3°C° 0 mm 2 m/S 778 mmHg 65%
    07:00 -3°C° 0 mm 2 m/S 778 mmHg 66%
    08:00 -1°C° 0 mm 1 m/S 778 mmHg 66%
    09:00 0°C° 0 mm 1 m/S 778 mmHg 63%
    10:00 +1°C° 0 mm 1 m/S 778 mmHg 60%
    11:00 +3°C° 0 mm 1 m/S 778 mmHg 57%
    12:00 +3°C° 0 mm 1 m/S 778 mmHg 57%
    13:00 +3°C° 0 mm 1 m/S 777 mmHg 56%
    14:00 +2°C° 0 mm 2 m/S 777 mmHg 56%
    15:00 +1°C° 0 mm 2 m/S 777 mmHg 61%
    16:00 -1°C° 0 mm 2 m/S 777 mmHg 65%
    17:00 -2°C° 0 mm 2 m/S 777 mmHg 69%
    18:00 -2°C° 0 mm 2 m/S 777 mmHg 70%
    19:00 -2°C° 0 mm 3 m/S 777 mmHg 71%
    20:00 -2°C° 0 mm 3 m/S 777 mmHg 72%
    21:00 -4°C° 0 mm 3 m/S 776 mmHg 71%
    22:00 -4°C° 0 mm 4 m/S 776 mmHg 70%
    23:00 -4°C° 0 mm 4 m/S 776 mmHg 69%

    übermorgen, 15 Dezember, Samstag

    Zeit Temperatur Niederschläge Wind Luftdruck Luftfeuchtigkeit
    00:00 -4°C° 0 mm 4 m/S 776 mmHg 68%
    01:00 -5°C° 0 mm 5 m/S 776 mmHg 67%
    02:00 -5°C° 0 mm 5 m/S 775 mmHg 66%
    03:00 -5°C° 0 mm 5 m/S 775 mmHg 66%
    04:00 -5°C° 0 mm 5 m/S 774 mmHg 66%
    05:00 -5°C° 0 mm 5 m/S 774 mmHg 66%
    06:00 -4°C° 0 mm 5 m/S 774 mmHg 67%
    07:00 -4°C° 0 mm 5 m/S 774 mmHg 68%
    08:00 -4°C° 0 mm 5 m/S 774 mmHg 69%
    09:00 -1°C° 0 mm 5 m/S 774 mmHg 69%
    10:00 -1°C° 0 mm 6 m/S 773 mmHg 68%
    11:00 +1°C° 0 mm 6 m/S 773 mmHg 68%
    12:00 +2°C° 0 mm 6 m/S 772 mmHg 68%
    13:00 +3°C° 0 mm 6 m/S 772 mmHg 68%
    14:00 +3°C° 0 mm 6 m/S 771 mmHg 68%
    15:00 +3°C° 0 mm 6 m/S 771 mmHg 71%
    16:00 +2°C° 0 mm 5 m/S 770 mmHg 75%
    17:00 +1°C° 0 mm 5 m/S 770 mmHg 79%
    18:00 +1°C° 0 mm 5 m/S 770 mmHg 80%
    19:00 0°C° 0 mm 5 m/S 770 mmHg 81%
    20:00 0°C° 0 mm 5 m/S 770 mmHg 83%
    21:00 0°C° 0 mm 5 m/S 770 mmHg 83%
    22:00 0°C° 0 mm 5 m/S 769 mmHg 83%
    23:00 -2°C° 0 mm 6 m/S 769 mmHg 83%

    16 Dezember, Sonntag

    Zeit Temperatur Niederschläge Wind Luftdruck Luftfeuchtigkeit
    00:00 -2°C° 0 mm 6 m/S 769 mmHg 84%
    01:00 -1°C° 0 mm 6 m/S 768 mmHg 84%
    02:00 -1°C° 0 mm 6 m/S 768 mmHg 85%
    03:00 0°C° 0 mm 5 m/S 768 mmHg 86%
    04:00 0°C° 0 mm 5 m/S 767 mmHg 87%
    05:00 0°C° 0 mm 5 m/S 767 mmHg 89%
    06:00 0°C° 0 mm 5 m/S 767 mmHg 89%
    07:00 0°C° 0 mm 5 m/S 767 mmHg 89%
    08:00 0°C° 0 mm 5 m/S 767 mmHg 89%
    09:00 +1°C° 0 mm 5 m/S 767 mmHg 80%
    10:00 +3°C° 0 mm 6 m/S 767 mmHg 71%
    11:00 +4°C° 0 mm 6 m/S 767 mmHg 62%
    12:00 +4°C° 0 mm 6 m/S 766 mmHg 57%
    13:00 +4°C° 0 mm 7 m/S 766 mmHg 53%
    14:00 +4°C° 0 mm 7 m/S 766 mmHg 48%
    15:00 +3°C° 0 mm 7 m/S 766 mmHg 52%
    16:00 +2°C° 0 mm 7 m/S 766 mmHg 55%
    17:00 +1°C° 0 mm 6 m/S 766 mmHg 58%
    18:00 0°C° 0 mm 7 m/S 766 mmHg 58%
    19:00 -1°C° 0 mm 7 m/S 767 mmHg 59%
    20:00 -1°C° 0 mm 7 m/S 767 mmHg 59%
    21:00 -1°C° 0 mm 7 m/S 767 mmHg 57%
    22:00 -1°C° 0 mm 7 m/S 767 mmHg 56%
    23:00 -1°C° 0 mm 7 m/S 767 mmHg 54%

    17 Dezember, Montag

    Zeit Temperatur Niederschläge Wind Luftdruck Luftfeuchtigkeit
    00:00 -1°C° 0 mm 7 m/S 767 mmHg 54%
    01:00 -1°C° 0 mm 7 m/S 767 mmHg 55%
    02:00 -1°C° 0 mm 7 m/S 767 mmHg 55%
    03:00 -1°C° 0 mm 7 m/S 767 mmHg 55%
    04:00 -1°C° 0 mm 7 m/S 766 mmHg 56%
    05:00 -1°C° 0 mm 7 m/S 766 mmHg 57%
    06:00 -1°C° 0 mm 7 m/S 767 mmHg 57%
    07:00 -1°C° 0 mm 7 m/S 767 mmHg 56%
    08:00 -1°C° 0 mm 6 m/S 767 mmHg 56%
    09:00 0°C° 0 mm 7 m/S 767 mmHg 51%
    10:00 +2°C° 0 mm 7 m/S 767 mmHg 46%
    11:00 +4°C° 0 mm 7 m/S 767 mmHg 41%
    12:00 +4°C° 0 mm 8 m/S 766 mmHg 41%
    13:00 +4°C° 0 mm 8 m/S 766 mmHg 41%
    14:00 +4°C° 0 mm 8 m/S 765 mmHg 41%
    15:00 +3°C° 0 mm 7 m/S 765 mmHg 43%
    16:00 +2°C° 0 mm 7 m/S 765 mmHg 46%
    17:00 +1°C° 0 mm 6 m/S 765 mmHg 48%
    18:00 -1°C° 0 mm 6 m/S 765 mmHg 48%
    19:00 -1°C° 0 mm 6 m/S 765 mmHg 48%
    20:00 -1°C° 0 mm 7 m/S 765 mmHg 49%
    21:00 -1°C° 0 mm 7 m/S 765 mmHg 49%
    22:00 -1°C° 0 mm 7 m/S 765 mmHg 50%
    23:00 -1°C° 0 mm 7 m/S 765 mmHg 51%

    18 Dezember, Dienstag

    Zeit Temperatur Niederschläge Wind Luftdruck Luftfeuchtigkeit
    00:00 -1°C° 0 mm 6 m/S 765 mmHg 52%
    01:00 -1°C° 0 mm 6 m/S 765 mmHg 54%
    02:00 -1°C° 0 mm 6 m/S 765 mmHg 55%
    03:00 -1°C° 0 mm 6 m/S 765 mmHg 57%
    04:00 -1°C° 0 mm 7 m/S 765 mmHg 59%
    05:00 -1°C° 0 mm 7 m/S 765 mmHg 60%
    06:00 0°C° 0 mm 7 m/S 765 mmHg 60%
    07:00 0°C° 0 mm 7 m/S 766 mmHg 59%
    08:00 +1°C° 0 mm 6 m/S 767 mmHg 59%
    09:00 +2°C° 0 mm 6 m/S 767 mmHg 55%
    10:00 +2°C° 0 mm 6 m/S 767 mmHg 51%
    11:00 +3°C° 0 mm 6 m/S 768 mmHg 48%
    12:00 +3°C° 0 mm 5 m/S 767 mmHg 47%
    13:00 +3°C° 0 mm 5 m/S 767 mmHg 46%
    14:00 +4°C° 0 mm 4 m/S 767 mmHg 46%
    15:00 +3°C° 0 mm 4 m/S 767 mmHg 50%
    16:00 +2°C° 0 mm 3 m/S 767 mmHg 54%
    17:00 +1°C° 0 mm 3 m/S 768 mmHg 58%
    18:00 +1°C° 0 mm 3 m/S 768 mmHg 59%
    19:00 0°C° 0 mm 3 m/S 768 mmHg 61%
    20:00 0°C° 0 mm 3 m/S 768 mmHg 63%
    21:00 -1°C° 0 mm 4 m/S 768 mmHg 63%
    22:00 -2°C° 0 mm 4 m/S 768 mmHg 63%
    23:00 -2°C° 0 mm 4 m/S 768 mmHg 63%
    Mehr zeigen